User: anonymous   Login
Location: Churchill
(58.7670°N, 94.1670°W)
Time: 11:07:39
(UTC-05:00)
Language:

Cosmos 2142 Rocket - Orbit

View from above orbital plane
View from above orbital plane
View from above satellite
View from above satellite

Ground track
Ground track

The orbit data is extracted from the following two-line orbital elements,

1 21231U 91029B   14297.09422088  .00000118  00000-0  10574-3 0  5802
2 21231 082.9496 104.9867 0035874 052.9455 085.2046 13.75637191180817
Epoch (UTC): 24 October 2014 02:15:40
Eccentricity: 0.0035874
inclination: 82.9496°
perigee height: 953 km
apogee height: 1006 km
right ascension of ascending node: 104.9867°
argument of perigee: 52.9455°
revolutions per day: 13.75637191
mean anomaly at epoch: 85.2046°
orbit number at epoch: 18081

The dashed part of the orbit path shows where the satellite is in the earth's shadow,  

DLR